This demonstration page uses our WeatherBlox Daily Observations layout. Learn more.

Left ArrowRight Arrow

34.74481, -87.66753

Hourly Observations for April 22, 2021

Temp ( °F °C ) Dew Point ( °F °C ) Humidity (%) Winds ( mph kmh ) Pressure ( in mb ) Visibility ( mi km ) Precip ( " mm )
12:53 am 00:53 Clear 39 3.9 32 0 76 76 Calm 30.20 1023 10 16 0.00 0.00
1:53 am 01:53 Clear 38 3.3 31 -0.6 76 76 Calm 30.20 1023 10 16 0.00 0.00
2:53 am 02:53 Clear 37 2.8 30 -1.1 76 76 Calm 30.20 1023 10 16 0.00 0.00
3:53 am 03:53 Clear 36 2.2 31 -0.6 82 82 Calm 30.19 1022 10 16 0.00 0.00
4:53 am 04:53 Clear 35 1.7 31 -0.6 85 85 Calm 30.19 1022 10 16 0.00 0.00
5:53 am 05:53 Clear 35 1.7 30 -1.1 82 82 Calm 30.21 1023 10 16 0.00 0.00
6:53 am 06:53 Sunny 36 2.2 31 -0.6 82 82 Calm 30.23 1024 10 16 0.00 0.00
7:53 am 07:53 Sunny 43 6.1 33 0.6 68 68 S 3 6 30.25 1024 10 16 0.00 0.00
8:53 am 08:53 Sunny 52 11.1 31 -0.6 45 45 SW 6 9 30.25 1024 10 16 0.00 0.00
9:53 am 09:53 Sunny 57 13.9 29 -1.7 34 34 W 13 20 30.25 1024 10 16 0.00 0.00
10:53 am 10:53 Sunny 59 15 29 -1.7 32 32 WNW 6 9 30.25 1024 10 16 0.00 0.00
11:53 am 11:53 Sunny 60 15.6 30 -1.1 32 32 W 8 13 30.24 1024 10 16 0.00 0.00
12:53 pm 12:53 Mostly Sunny 63 17.2 32 0 31 31 W 15 24 30.22 1024 10 16 0.00 0.00
1:53 pm 13:53 Sunny 63 17.2 33 0.6 33 33 WSW 9 15 30.21 1023 10 16 0.00 0.00
2:53 pm 14:53 Sunny 64 17.8 30 -1.1 28 28 VRB 7 11 30.17 1022 10 16 0.00 0.00
3:53 pm 15:53 Sunny 65 18.3 32 0 29 29 WNW 9 15 30.15 1021 10 16 0.00 0.00
4:53 pm 16:53 Sunny 64 17.8 28 -2.2 26 26 WSW 9 15 30.13 1020 10 16 0.00 0.00
5:53 pm 17:53 Sunny 65 18.3 30 -1.1 27 27 NNW 6 9 30.12 1020 10 16 0.00 0.00
6:53 pm 18:53 Sunny 63 17.2 30 -1.1 29 29 NNW 3 6 30.11 1020 10 16 0.00 0.00
7:53 pm 19:53 Clear 55 12.8 35 1.7 47 47 Calm 30.12 1020 10 16 0.00 0.00
8:53 pm 20:53 Clear 51 10.6 35 1.7 54 54 ESE 3 6 30.11 1020 10 16 0.00 0.00
9:53 pm 21:53 Clear 51 10.6 37 2.8 59 59 Calm 30.14 1021 10 16 0.00 0.00
10:53 pm 22:53 Clear 47 8.3 38 3.3 71 71 Calm 30.13 1020 10 16 0.00 0.00
11:53 pm 23:53 Clear 49 9.4 38 3.3 66 66 Calm 30.14 1021 10 16 0.00 0.00

Powered by AerisWeather